User: anonymous   Login
Location: Peebles
(55.6412°N, 3.1714°W)
Time: 11:47:04
(UTC+00:00)
Language:

USA 238 DEB - Orbit

View from above orbital plane
View from above orbital plane
View from above satellite
View from above satellite

Ground track
Ground track

The orbit data is extracted from the following two-line orbital elements,

1 38773U 12048P   21329.21881533 0.00000000  00000-0  00000-0 0    04
2 38773  63.4263 132.5819 0171667 359.9056   0.0944 13.40827051    06
Epoch (UTC): 25 November 2021 05:15:05
Eccentricity: 0.0171667
inclination: 63.4263°
perigee height: 978 km
apogee height: 1234 km
right ascension of ascending node: 132.5819°
argument of perigee: 359.9056°
revolutions per day: 13.40827051
mean anomaly at epoch: 0.0944°
orbit number at epoch: 0

The dashed part of the orbit path shows where the satellite is in the earth's shadow,  

DLR